Location: Unspecified
(0.0000°N, 0.0000°E)
Time: 11:39:57
(UTC+00:00)

Vanguard 3 - Pass Details

Date: 09 October 2022
Orbit: 509 x 3255 km, 33.3° (Epoch: 30 November)

Event Time Altitude Azimuth Distance (km) Brightness Sun altitude
Rises 19:45:18 0° 239° (WSW) 7,008 12.9 -29.3°
Reaches altitude 10° 19:53:09 10° 221° (SW) 6,177 12.1 -31.3°
Maximum altitude 20:04:17 17° 186° (S) 5,494 11.4 -34.0°
Drops below altitude 10° 20:14:34 10° 151° (SSE) 5,649 11.2 -36.6°
Enters shadow 20:17:16 - 143° (SE) 5,833 11.2 -37.2°
